PDT,Max TemperatureF,Mean TemperatureF,Min TemperatureF,Max Dew PointF,MeanDew PointF,Min DewpointF,Max Humidity, Mean Humidity, Min Humidity, Max Sea Level PressureIn, Mean Sea Level PressureIn, Min Sea Level PressureIn, Max VisibilityMiles, Mean VisibilityMiles, Min VisibilityMiles, Max Wind SpeedMPH, Mean Wind SpeedMPH, Max Gust SpeedMPH,PrecipitationIn, CloudCover, Events, WindDirDegrees
2013-6-1,70,54,38,41,39,35,61,42,24,30.19,30.07,29.95,10,10,10,15,6,,0.00,3,,302
2013-6-2,75,64,53,45,38,34,71,47,23,29.99,29.93,29.88,10,10,10,26,13,36,T,2,,301
2013-6-3,70,54,37,42,38,30,64,38,18,30.04,29.98,29.91,10,10,10,15,8,23,0.00,1,,315
2013-6-4,73,59,44,48,46,43,67,40,25,30.14,30.07,29.99,10,10,10,12,6,,0.00,0,,267
2013-6-5,79,61,43,55,45,41,77,35,19,30.02,29.98,29.91,10,10,10,17,7,23,0.00,0,,290
2013-6-6,81,67,53,45,41,35,52,31,18,29.98,29.91,29.83,10,10,10,20,9,25,0.00,0,,302
2013-6-7,79,66,53,47,41,36,38,32,21,29.97,29.89,29.85,10,10,10,28,15,37,0.00,0,,307
2013-6-8,77,60,43,42,37,33,48,31,16,30.03,29.96,29.88,10,10,10,20,14,24,0.00,0,,302
2013-6-9,73,60,47,41,34,28,53,32,17,29.95,29.90,29.83,10,10,10,20,12,25,0.00,0,,303
2013-6-10,73,56,38,39,34,30,53,32,17,29.89,29.80,29.69,10,10,10,23,12,23,0.00,0,,310
2013-6-11,68,54,40,39,35,29,48,36,22,30.00,29.84,29.76,10,10,10,25,17,33,0.00,0,,310
2013-6-12,66,52,38,36,32,27,58,37,22,30.05,30.01,29.96,10,10,10,24,9,38,0.00,1,Rain,300
2013-6-13,68,55,41,38,35,32,59,39,24,30.10,30.04,30.00,10,10,10,23,10,32,0.00,0,,296
2013-6-14,68,55,41,39,37,34,53,37,24,30.12,30.05,29.96,10,10,10,14,10,,0.00,0,,313
2013-6-15,77,58,38,42,40,37,63,39,21,30.02,29.96,29.89,10,10,10,12,6,,0.00,0,,285
2013-6-16,84,65,46,48,42,34,55,35,16,30.01,29.94,29.86,10,10,10,21,8,29,0.00,0,,295
2013-6-17,81,68,55,52,45,37,61,41,19,29.96,29.88,29.79,10,10,4,20,11,29,0.06,2,Rain,319
2013-6-18,69,60,51,52,49,43,75,63,47,29.89,29.86,29.83,10,10,10,17,9,23,0.19,3,Rain,58
2013-6-19,55,52,49,48,42,37,77,52,31,29.87,29.81,29.78,10,10,10,28,14,34,0.00,6,Rain,301
2013-6-20,50,49,48,47,41,37,74,54,40,30.02,29.89,29.82,10,10,10,17,12,23,1.32,7,Rain,305
2013-6-21,61,54,46,45,42,39,64,50,37,30.08,30.06,30.02,10,10,10,10,7,,0.03,8,,323
2013-6-22,68,56,44,47,45,43,74,47,32,30.07,29.97,29.87,10,10,10,14,6,25,0.00,2,,79
2013-6-23,73,57,41,55,46,42,78,48,31,29.86,29.74,29.60,10,10,10,10,4,,0.01,5,Rain,206
2013-6-24,64,57,50,57,54,50,87,78,65,29.69,29.61,29.58,10,9,2,10,2,,0.42,7,Rain,88
2013-6-25,68,58,47,53,50,47,83,74,57,29.83,29.76,29.70,10,10,10,15,5,20,0.24,5,Rain,333
2013-6-26,72,62,51,53,50,46,83,63,44,30.06,29.95,29.84,10,10,10,18,5,,T,4,Rain,327
2013-6-27,78,68,57,54,52,47,80,62,43,30.20,30.14,30.07,10,10,10,14,7,26,0.04,4,Rain,298
2013-6-28,86,69,51,60,55,53,80,54,30,30.22,30.12,30.00,10,10,10,9,5,,0.00,1,,281
2013-6-29,75,67,58,66,61,58,79,62,43,30.04,30.00,29.97,10,10,8,15,8,,0.13,3,Rain,286
2013-6-30,88,72,55,60,56,49,87,50,21,30.04,29.97,29.89,10,10,10,12,7,,0.00,0,,262